Theta_e
302 302 301 302 303 303 304 304 305 306 308 309 311 312 313 314 314 312 311 311 310 310 310 311 313 313 313 314 313 316 316 315 318 317 316 314 312 313 310 309 309 309 310 311 313 314 315 315 316 317 317 318 318 318 318 318 318 318 321 319 316 316 318 319 323 322 321 324 325 327 327 327 330 333 336 335 335 336 337 338 337 338 339 339 341 341 340 341
301 301 301 301 301 302 303 304 305 306 307 308 310 311 312 313 314 313 310 310 310 310 310 311 313 313 314 313 314 316 315 317 320 314 312 312 311 311 309 309 309 310 312 313 315 315 316 316 317 317 317 318 317 317 318 318 318 319 321 319 317 320 319 320 322 322 323 323 324 326 327 327 328 332 335 334 335 335 336 339 339 338 339 340 340 340 340 340
301 300 300 300 300 301 302 303 304 305 307 308 309 311 312 312 314 314 311 310 310 310 310 311 313 313 313 313 315 316 316 318 316 311 312 311 310 310 309 309 310 311 312 313 315 315 316 316 317 318 317 317 317 317 318 318 318 318 319 319 319 320 319 320 320 321 323 322 323 326 327 328 329 332 333 332 334 334 333 336 338 339 340 339 339 341 341 340
300 299 300 299 300 300 301 303 305 306 307 308 310 310 312 312 313 314 312 310 310 310 310 312 312 313 313 314 315 317 318 317 312 312 312 310 310 309 309 309 311 312 312 313 314 315 316 317 318 318 317 318 317 317 318 318 318 318 318 319 319 318 318 319 319 319 319 320 321 324 326 328 331 331 332 332 331 333 333 334 337 338 339 338 338 340 340 340
299 299 299 299 300 300 302 304 305 307 307 308 310 311 312 312 313 314 312 310 310 310 311 312 313 313 313 315 316 317 320 314 311 313 311 310 310 309 310 310 311 312 312 313 314 315 316 317 318 317 318 318 317 318 318 317 317 317 318 318 318 318 318 318 318 318 318 320 321 323 326 328 330 331 334 333 332 335 335 335 338 337 337 337 338 340 339 340
300 299 299 299 300 300 302 304 306 307 308 309 310 311 312 312 313 314 313 311 311 310 311 312 313 313 313 316 316 318 319 312 313 314 311 310 310 310 311 311 312 312 312 314 315 316 316 317 317 317 318 317 318 318 317 316 315 316 318 317 316 317 317 318 317 316 318 320 321 324 327 327 329 333 335 335 337 338 335 335 337 337 338 338 339 340 339 339
300 299 299 299 299 300 302 304 306 307 309 310 311 312 312 312 313 314 313 312 311 311 311 312 313 313 314 316 317 319 317 312 315 314 312 312 311 312 312 312 313 312 313 315 316 316 316 316 316 317 317 317 317 316 315 315 314 315 317 316 316 316 316 317 316 316 317 318 322 325 328 328 330 335 336 337 339 337 335 336 338 339 339 339 340 340 339 340
300 299 299 299 299 300 302 304 306 308 311 313 314 314 314 315 314 314 313 312 311 312 312 312 313 313 314 317 319 318 314 314 316 314 313 312 312 312 311 312 312 313 314 315 315 315 315 316 316 315 316 317 316 316 315 315 315 315 316 316 316 316 316 317 317 317 318 321 324 326 329 332 333 335 337 339 339 337 337 337 338 339 338 338 339 339 339 340
300 300 299 299 299 300 301 303 306 309 313 315 316 316 316 317 316 315 314 313 312 312 312 312 313 313 314 318 318 314 314 315 315 314 313 313 312 311 312 313 313 314 315 315 315 316 315 315 315 315 315 316 315 315 315 315 315 315 315 316 316 316 316 319 322 322 323 325 327 329 332 335 334 334 339 341 338 338 338 337 338 338 337 338 338 338 339 339
300 300 299 299 300 300 301 303 306 311 315 316 316 316 316 318 318 316 313 313 312 312 312 312 312 313 317 320 317 314 315 315 314 314 313 313 312 311 312 314 314 314 315 316 316 316 315 315 315 314 315 315 315 315 315 315 315 315 315 315 315 316 320 323 326 326 327 329 329 330 332 335 334 331 337 341 338 338 338 338 338 337 336 337 337 338 340 340
300 300 299 300 300 300 301 303 306 312 316 317 317 317 317 318 319 317 314 313 312 312 312 312 312 314 319 320 317 315 316 316 315 314 313 313 313 313 314 314 314 315 316 316 316 316 315 315 316 314 315 315 315 315 315 315 314 315 315 315 315 317 322 325 327 328 328 331 331 331 331 334 334 331 337 340 337 338 338 339 338 336 336 335 336 337 339 340
300 300 299 300 300 301 301 302 307 313 316 317 318 318 318 318 318 318 316 313 312 312 311 312 312 315 320 320 317 317 316 317 316 316 315 313 314 314 314 314 314 315 315 317 316 316 315 315 315 314 315 314 315 315 314 315 314 315 314 315 316 316 320 323 327 329 327 330 333 331 327 327 329 332 338 339 336 338 338 338 337 336 335 334 334 335 337 339
301 300 300 300 300 301 301 302 307 314 317 317 318 318 319 318 318 318 317 313 312 312 312 313 313 316 321 320 318 317 317 317 317 317 316 315 315 314 314 314 314 315 315 316 316 315 315 315 315 315 315 314 315 315 314 314 314 315 315 315 316 314 318 324 327 328 328 331 334 330 320 319 329 336 339 338 336 337 337 337 336 335 335 334 334 333 334 337
301 300 300 300 300 300 302 302 306 314 317 317 318 318 318 318 317 318 318 315 312 312 312 313 314 318 322 319 317 317 317 317 316 317 317 316 316 315 315 314 314 315 314 315 315 314 314 315 315 315 315 314 315 315 314 315 314 316 314 315 316 312 316 325 328 327 327 331 335 329 317 318 333 339 339 338 336 337 336 337 336 335 335 334 334 333 332 335
301 301 300 301 301 301 301 302 306 315 317 317 318 318 318 318 317 319 318 315 313 313 313 315 317 320 321 317 316 317 316 317 317 318 317 316 317 316 316 315 315 315 314 314 314 313 314 314 315 315 315 315 314 315 316 315 315 316 312 311 314 311 313 322 326 325 328 331 335 328 316 319 333 337 339 337 336 337 337 337 336 335 336 335 334 333 332 333
301 301 300 301 301 301 302 302 306 314 318 318 318 318 318 318 319 319 317 316 315 315 316 319 320 321 320 317 317 318 317 318 318 318 317 316 317 316 316 316 315 315 314 314 313 313 314 315 315 315 315 315 315 315 315 313 313 316 313 310 311 310 311 315 320 324 328 331 333 328 319 321 333 337 338 337 337 337 337 338 338 337 337 336 335 333 332 332
301 301 300 301 301 302 303 303 306 314 318 317 318 317 318 319 319 318 317 317 317 316 318 322 321 320 320 318 317 317 318 320 319 318 317 317 316 316 316 316 316 316 316 314 314 314 314 315 314 314 315 315 315 315 313 309 309 313 314 311 311 311 311 311 315 320 325 328 329 329 324 321 331 336 336 337 337 337 337 336 337 337 337 336 335 334 333 332
301 301 300 301 301 302 304 304 307 314 317 317 318 317 318 319 318 319 320 319 318 319 319 319 319 320 320 318 317 318 320 320 320 319 317 316 316 316 316 317 316 316 316 315 314 315 315 315 315 315 316 315 315 315 311 309 311 311 312 311 310 311 311 311 314 317 320 324 326 328 326 324 330 334 335 337 336 336 337 336 337 337 337 337 336 335 334 333
300 300 300 301 301 302 303 304 307 314 317 317 317 317 318 319 319 320 321 321 320 320 320 320 320 320 319 317 318 320 321 320 319 318 317 316 315 316 316 316 316 316 316 316 315 316 315 315 315 314 314 315 316 316 313 313 314 314 313 312 310 310 311 313 316 317 318 321 323 326 326 325 328 330 333 335 336 337 337 337 337 337 337 338 337 336 335 334
300 299 299 300 301 301 303 304 308 315 318 317 317 319 320 320 320 321 321 320 320 320 320 320 320 320 319 318 319 320 320 320 318 317 316 316 315 316 316 315 316 316 316 316 316 315 315 315 314 314 315 316 316 315 316 316 316 315 315 313 312 311 311 315 317 318 320 319 319 322 323 325 327 328 331 334 335 337 337 338 338 337 337 338 339 337 336 336
299 299 299 299 300 301 302 304 309 314 318 317 318 320 320 318 319 319 319 318 319 320 318 319 320 320 320 320 321 321 320 318 318 317 316 316 316 316 315 316 316 316 316 316 316 316 315 314 314 316 316 316 315 315 316 316 316 316 314 313 312 312 312 316 319 318 321 320 319 322 322 323 326 326 329 333 334 335 335 337 338 337 337 339 339 338 337 336
299 298 298 299 300 301 302 304 309 313 317 319 319 321 319 318 317 317 317 318 319 320 318 318 320 319 320 321 321 320 319 318 317 317 317 316 316 316 315 316 315 316 317 316 315 316 315 315 316 316 316 315 315 315 315 316 316 316 315 312 311 312 314 315 320 321 321 319 318 322 321 320 324 326 328 332 332 333 334 335 337 338 339 339 338 338 337 337
298 298 298 299 300 301 302 305 308 309 314 319 319 319 317 315 315 316 317 318 319 320 318 318 318 318 319 320 320 319 319 318 317 317 317 316 316 316 315 316 316 316 316 315 316 314 313 314 316 316 315 315 315 315 316 316 316 316 314 311 310 313 313 311 316 322 322 320 320 322 320 319 323 327 328 331 331 332 334 336 338 338 339 339 337 337 337 338
298 298 299 299 299 301 302 304 308 307 309 316 317 313 311 310 313 317 319 320 320 319 319 319 319 318 319 319 320 320 319 318 318 317 318 317 315 315 315 316 316 315 316 317 316 314 314 315 316 315 315 316 316 316 317 315 314 316 315 312 311 313 314 311 315 319 319 322 323 319 314 314 321 324 325 330 332 333 335 337 338 338 338 338 337 337 337 338
299 299 299 299 299 301 302 307 311 306 307 316 316 310 307 307 312 317 320 323 322 321 321 321 320 319 319 318 319 320 319 318 318 318 319 318 316 315 315 316 316 316 316 316 316 315 315 315 314 315 316 315 316 316 317 315 312 313 315 315 314 315 315 315 316 315 313 315 318 316 310 310 318 320 321 328 332 333 334 335 336 336 337 337 337 338 338 337
299 299 299 299 299 300 306 313 311 305 308 317 316 311 308 307 311 317 322 325 322 321 322 321 322 321 318 318 319 320 318 318 318 317 318 317 316 316 316 315 316 316 316 317 316 316 316 315 314 316 316 316 316 315 316 316 312 311 314 316 316 316 315 315 315 312 309 311 316 316 311 310 314 316 320 325 327 327 331 334 333 333 334 336 336 336 336 337
298 299 299 299 298 299 308 314 308 305 310 314 313 310 308 307 312 319 325 321 318 320 321 320 320 319 318 319 320 317 316 317 316 316 317 316 316 316 316 316 316 315 317 316 314 315 317 316 315 316 316 316 315 315 316 317 312 311 315 317 316 316 315 315 314 312 311 312 315 315 313 310 310 315 322 324 321 321 325 329 329 328 329 332 334 334 335 336
298 299 298 299 298 298 304 308 306 308 308 307 307 308 307 308 315 324 325 316 316 321 321 319 317 317 317 318 319 317 316 316 316 316 316 315 316 316 315 316 316 316 317 315 312 315 318 317 316 316 316 315 315 316 316 316 314 314 316 316 316 316 316 316 314 312 312 312 310 311 314 311 308 313 322 322 318 317 319 322 323 323 323 328 331 330 332 335
298 298 299 298 298 299 302 303 304 307 305 304 305 307 309 312 319 325 320 315 319 322 320 318 317 317 317 317 317 317 316 316 316 316 315 314 315 316 315 316 316 316 316 315 314 316 317 317 317 317 315 316 316 317 316 316 316 316 316 316 316 317 316 316 315 312 313 312 309 311 313 311 308 311 315 318 317 317 319 319 320 320 321 326 329 328 330 334
297 298 298 298 301 305 302 302 304 304 304 303 304 310 313 318 322 320 315 316 321 321 319 318 317 318 318 317 317 318 316 316 316 315 315 315 315 315 315 315 316 316 317 316 316 317 317 317 317 317 316 317 317 316 315 315 316 316 316 316 316 316 317 316 316 313 312 312 310 312 313 312 310 310 313 317 318 319 320 319 320 321 322 325 328 329 329 333
298 299 299 298 303 303 302 306 307 304 303 302 305 315 319 321 320 315 315 318 320 321 319 318 319 318 318 318 318 318 317 317 316 315 316 316 316 315 315 315 316 316 316 316 316 317 317 317 318 317 316 317 317 315 314 315 315 316 316 316 314 314 315 315 314 314 313 312 312 313 314 314 311 311 315 318 319 320 320 320 321 323 323 324 327 328 329 331
299 299 299 299 300 299 301 307 305 301 301 303 311 318 318 317 316 312 314 317 318 322 322 320 320 319 318 319 319 318 318 318 317 316 316 316 316 317 316 316 316 315 313 314 315 316 316 317 318 317 317 316 317 316 314 314 315 316 315 314 312 311 313 313 313 314 313 312 314 314 314 314 312 314 318 319 319 319 321 322 323 323 324 325 325 328 330 331
299 300 299 299 298 298 300 302 301 300 301 306 314 317 313 315 315 314 314 315 320 325 324 321 321 319 320 319 319 319 318 318 318 317 317 317 317 317 316 317 317 316 314 315 315 314 315 317 318 318 317 316 316 316 314 314 315 315 313 312 312 312 314 315 314 313 313 313 314 315 315 313 312 315 320 320 320 321 322 323 323 323 324 324 325 326 327 329
300 299 299 299 299 299 300 300 300 300 303 310 315 314 315 316 315 316 316 316 322 326 324 322 321 320 320 319 320 320 318 318 318 317 318 317 317 317 317 317 317 318 318 317 316 314 313 316 318 318 318 317 318 317 317 317 316 316 316 315 313 312 314 315 314 313 313 314 314 316 315 312 312 316 321 320 320 321 323 324 324 324 325 325 325 324 326 327
300 299 300 300 300 301 301 301 301 300 305 313 313 313 316 315 314 314 316 317 323 326 323 321 321 321 320 321 320 320 318 319 319 318 318 318 317 318 318 318 317 317 318 316 316 316 313 314 318 318 318 318 318 318 318 318 316 317 318 316 313 314 314 314 316 318 316 315 315 315 314 314 316 320 320 320 320 321 322 324 325 325 326 327 326 325 326 327
301 301 301 302 301 301 302 302 301 302 308 313 311 313 314 313 314 313 317 321 322 324 324 320 321 322 320 321 322 321 319 318 319 319 318 319 319 319 319 319 318 317 318 316 317 317 314 315 320 318 317 318 318 318 318 316 316 317 316 314 316 318 317 315 317 320 317 316 315 314 314 315 316 320 320 320 321 320 321 322 323 324 325 327 327 326 326 326
304 305 306 307 306 304 304 303 302 305 310 312 311 314 314 313 315 314 318 321 320 323 323 319 320 322 320 320 322 323 320 319 320 318 318 319 319 319 319 319 318 317 318 318 318 319 316 316 320 319 317 318 316 316 317 316 317 317 315 315 317 318 317 315 316 317 316 316 316 314 314 314 314 316 320 321 320 321 320 320 321 322 323 325 326 326 326 327
306 307 310 312 311 309 307 305 306 308 311 312 312 314 313 313 313 313 317 318 318 322 322 319 321 322 320 319 320 324 322 319 319 319 318 319 319 319 319 319 318 317 317 318 318 320 319 315 318 321 319 317 316 316 316 316 316 317 316 318 317 315 315 315 316 317 317 317 316 314 314 314 313 315 319 321 321 322 321 320 321 321 321 323 322 323 325 329
307 310 312 314 315 315 310 306 308 311 310 311 312 313 313 312 312 313 316 318 318 319 320 319 321 323 323 322 321 325 324 320 321 320 318 319 320 320 319 318 319 317 317 318 318 321 321 316 316 320 320 318 317 316 315 315 316 316 317 318 317 316 316 316 317 316 316 317 317 316 315 314 315 318 321 322 322 322 322 321 321 321 321 321 321 322 323 326
309 312 310 314 316 314 310 309 311 311 310 311 312 312 312 312 312 312 315 317 317 317 317 318 320 321 323 324 324 325 325 323 323 322 320 321 321 320 319 319 319 318 317 317 319 320 321 319 316 318 319 317 316 318 317 317 318 316 315 316 316 317 316 317 317 315 315 316 316 318 317 314 317 322 322 322 322 321 321 321 321 321 321 321 322 323 324 325
310 311 311 315 315 311 309 312 312 310 310 311 311 312 312 312 312 313 314 316 317 316 317 318 320 319 320 322 323 324 325 325 324 324 323 322 322 321 320 319 319 319 317 317 319 319 320 319 317 316 317 316 317 320 319 319 320 318 317 317 317 317 316 316 317 315 314 315 315 317 317 315 319 324 322 321 322 320 321 321 321 321 321 321 322 324 327 328
307 309 312 313 312 311 313 315 314 313 313 312 311 313 314 314 312 312 313 315 316 316 317 319 320 321 321 321 321 323 325 324 324 324 324 323 324 323 320 320 320 319 318 318 319 320 321 321 317 315 317 318 320 321 318 318 319 319 319 320 320 319 316 315 316 316 315 315 315 316 316 317 321 323 321 321 321 320 320 321 320 320 321 322 323 324 326 329
305 307 311 312 311 314 317 316 316 318 315 312 312 313 313 313 312 312 313 314 315 316 318 319 319 320 321 321 322 324 324 323 323 324 324 323 324 323 320 319 319 319 320 321 321 321 321 321 317 316 318 319 320 319 318 318 318 318 319 319 320 320 318 317 318 317 317 317 316 317 317 318 321 322 321 321 321 320 320 321 320 320 321 322 322 322 323 326
306 306 310 313 314 316 316 313 315 317 315 313 314 313 312 313 314 314 313 313 314 316 318 319 319 319 321 322 323 324 323 323 322 322 323 323 322 321 320 319 319 320 320 322 323 320 318 319 318 317 318 320 320 319 318 319 318 318 319 320 319 319 319 320 319 319 319 317 316 318 317 317 321 323 322 321 321 320 320 321 320 321 321 321 321 322 322 323
306 306 307 312 316 318 317 314 314 316 315 315 315 314 313 314 315 315 314 314 315 317 318 318 318 319 320 322 323 323 323 323 322 322 322 323 322 320 319 319 319 319 321 325 326 321 319 321 320 318 319 321 321 320 319 319 319 319 320 321 320 319 319 320 318 317 318 317 317 317 317 317 322 324 322 321 321 320 321 321 320 320 321 321 321 322 322 322
307 308 308 309 313 316 316 315 316 316 315 315 315 314 313 314 315 314 315 316 316 317 318 317 317 317 320 322 322 323 323 322 322 323 323 322 322 320 319 320 318 320 327 330 328 322 321 323 323 319 319 319 319 321 322 322 320 319 321 322 321 320 320 319 318 317 318 318 317 318 318 319 321 322 322 322 322 321 322 321 320 321 321 322 322 322 322 323
307 309 309 309 312 314 314 314 314 315 315 315 315 314 313 314 314 314 315 317 316 316 317 317 317 317 320 321 322 323 323 322 322 323 323 322 322 320 319 319 319 326 331 328 324 324 322 322 324 323 321 321 320 322 324 324 322 320 322 322 322 321 321 320 319 319 319 319 318 319 320 319 321 322 323 323 322 322 322 321 321 321 322 322 322 322 322 321
307 308 310 310 312 314 314 312 312 313 313 315 316 316 314 315 315 315 315 316 316 315 316 317 316 316 318 320 321 323 324 324 323 323 322 322 322 321 320 318 320 328 330 324 320 324 323 321 323 324 322 323 323 323 324 324 324 323 323 322 323 323 322 322 321 321 321 320 319 321 322 321 321 323 323 323 322 322 322 322 322 322 322 321 321 321 320 320
306 307 307 309 311 312 312 312 313 313 313 315 317 317 316 316 316 316 315 316 317 316 315 316 316 315 316 318 320 322 323 323 324 323 323 323 323 323 322 321 320 322 324 323 322 325 324 321 323 324 322 323 323 323 323 323 323 323 323 323 323 323 323 323 323 323 323 321 322 323 323 323 323 323 323 323 322 322 321 321 322 322 321 321 321 321 321 320
306 307 306 307 308 310 311 311 312 314 315 315 315 315 315 315 316 316 315 316 317 316 315 315 315 315 317 319 320 321 322 323 324 323 323 324 324 323 323 323 321 321 322 323 325 325 323 323 324 323 322 322 322 322 322 322 322 322 322 322 322 323 324 324 324 324 324 323 324 324 323 323 323 323 322 322 322 322 321 321 321 321 322 321 322 321 321 321
306 308 308 308 307 308 309 309 310 312 314 315 314 314 314 314 314 315 317 315 315 316 315 314 316 318 319 319 320 320 320 321 323 321 320 321 321 321 322 322 321 322 323 323 325 325 322 323 324 323 322 323 321 321 322 321 322 322 322 322 322 322 323 323 324 324 324 324 324 323 322 322 322 322 322 322 322 322 321 321 321 321 321 321 321 321 321 322
304 305 306 307 307 308 308 309 310 311 312 313 314 314 314 314 314 315 318 315 312 314 315 315 317 319 318 320 320 319 317 317 318 317 316 317 318 318 319 319 319 321 323 324 325 323 322 322 323 323 324 323 321 321 322 322 324 324 323 322 322 322 322 322 323 323 323 323 323 322 321 321 322 323 323 323 323 322 322 322 321 322 322 322 322 322 321 321
Wind_Speed
17 17 17 17 17 16 15 14 12 11 11 10 9 9 10 11 10 8 6 4 4 4 6 8 10 11 13 14 13 11 5 4 3 3 3 4 4 4 3 4 5 6 6 5 6 6 8 8 9 8 8 7 3 4 4 2 1 4 4 3 3 4 3 2 2 3 3 6 5 2 2 2 2 3 3 4 3 5 4 5 5 6 6 5 7 8 12 14
17 17 17 17 17 17 16 15 13 12 11 10 10 9 9 10 10 8 6 4 4 4 6 8 10 11 13 14 13 9 3 4 3 6 6 5 6 5 5 6 7 7 4 3 4 4 6 8 10 9 6 5 3 3 4 2 2 4 3 2 2 2 3 3 4 2 3 5 3 1 1 2 2 2 3 3 2 4 3 4 4 4 5 5 8 10 14 15
18 18 17 17 17 17 16 15 14 12 11 11 10 9 9 9 9 8 6 5 5 5 6 8 10 12 14 15 12 6 1 6 3 9 6 4 6 6 7 8 8 7 3 1 1 0 3 8 9 7 4 4 3 3 4 3 3 2 2 2 4 3 3 1 2 3 3 3 3 2 1 2 2 1 2 1 2 4 3 1 2 3 5 6 8 11 15 14
18 18 18 18 18 18 17 15 13 12 11 10 10 10 9 9 8 7 6 5 6 6 7 8 10 12 15 15 10 4 5 6 5 7 3 5 6 7 8 8 7 5 3 2 2 1 3 7 8 6 4 4 4 3 3 2 1 1 3 2 5 1 2 1 1 4 5 4 5 2 2 3 2 0 1 2 3 5 5 1 2 3 6 7 9 11 13 13
19 18 19 19 19 19 18 15 13 12 11 10 10 10 10 9 8 7 6 5 6 6 7 8 10 12 15 15 9 3 6 3 5 3 3 6 7 8 7 7 5 3 3 1 2 2 4 7 7 5 4 3 5 5 2 2 3 3 3 3 4 4 3 2 4 6 5 5 4 3 2 2 1 1 1 3 4 4 5 2 3 5 8 8 10 10 10 12
19 19 20 19 19 19 18 16 14 12 11 10 10 10 11 10 9 7 5 5 5 6 7 8 10 12 14 13 7 3 5 1 5 3 4 5 6 7 5 4 3 3 2 1 2 3 5 7 7 5 3 3 4 3 3 3 3 4 2 2 6 6 5 5 5 5 4 4 3 3 2 1 3 0 2 2 4 5 4 4 5 7 9 10 11 9 9 11
19 20 20 20 20 20 18 17 15 13 12 11 10 10 11 10 10 7 5 5 5 6 7 8 10 11 14 11 5 4 2 5 5 5 5 5 5 4 2 3 3 3 1 1 3 3 5 6 6 4 3 3 2 2 3 1 4 5 1 2 6 5 6 6 6 5 3 4 2 1 1 2 3 1 2 1 4 4 3 5 7 9 11 11 10 9 8 9
19 20 21 21 21 20 19 17 16 14 13 12 11 11 11 10 10 8 6 5 4 5 6 8 9 11 13 9 5 3 7 8 5 6 5 4 4 2 0 1 2 2 1 3 5 2 2 3 3 2 4 3 2 2 1 3 5 3 3 3 5 5 5 5 5 4 1 1 0 2 3 2 0 1 3 3 4 4 5 7 9 9 9 9 8 8 8 8
19 20 21 21 21 20 19 18 17 15 14 13 12 11 11 10 9 8 7 6 5 5 5 7 8 10 11 8 6 3 6 4 3 5 5 4 4 2 1 1 2 1 1 4 4 2 1 1 2 2 2 3 1 1 1 5 2 1 5 4 6 5 4 4 2 1 1 2 3 3 3 4 3 2 2 5 4 5 7 8 10 8 7 7 7 7 7 8
19 20 21 21 21 21 20 19 18 16 14 13 13 12 11 11 9 8 7 6 6 5 5 6 7 9 9 6 6 3 5 2 3 4 4 4 5 3 3 2 2 2 1 2 1 3 4 3 3 2 3 1 1 1 2 5 3 4 6 5 6 4 2 2 2 3 2 3 3 3 1 4 5 4 2 6 5 6 7 8 8 8 7 7 6 6 6 7
20 20 21 21 21 21 21 19 18 16 15 14 13 13 12 10 9 7 7 7 6 6 5 4 6 7 8 8 5 3 6 3 3 4 4 4 5 5 3 3 3 3 2 1 1 3 3 3 2 2 1 0 2 2 1 3 5 5 6 4 4 3 1 1 1 3 2 2 2 3 1 3 5 4 2 8 6 5 7 8 7 7 8 8 7 6 5 6
20 20 21 21 21 21 21 20 18 16 15 14 14 13 13 11 9 8 7 7 6 6 4 4 5 5 7 7 1 5 6 2 1 3 4 4 6 5 4 4 4 4 4 3 2 2 1 2 2 3 2 2 4 2 1 3 6 5 5 5 4 5 5 4 2 2 1 1 2 3 4 6 7 4 7 9 6 6 7 7 8 7 7 7 8 7 6 6
19 20 20 20 21 21 21 21 19 16 14 14 14 14 15 12 10 8 6 7 6 5 5 5 4 4 7 4 4 5 4 1 2 2 3 5 6 6 5 4 4 4 5 5 4 3 2 2 4 3 3 4 3 2 2 3 6 4 4 5 4 6 6 6 3 2 2 2 2 4 6 5 6 8 9 8 7 7 7 7 8 7 6 6 6 7 7 8
19 19 19 20 21 21 22 21 19 16 14 15 15 16 17 13 10 9 7 6 5 5 5 4 3 3 6 1 6 5 3 0 2 2 4 5 5 5 4 4 3 3 3 4 4 3 2 3 5 4 1 4 3 3 5 5 4 3 3 4 5 5 3 7 4 3 4 3 3 6 6 2 8 8 9 7 7 7 6 7 7 6 6 5 6 6 6 7
18 18 19 19 20 21 22 22 19 14 14 15 16 17 16 12 8 7 5 5 5 5 4 3 3 3 5 2 6 4 2 3 4 3 4 5 6 5 4 2 2 2 2 2 2 1 2 4 5 4 2 2 4 6 6 5 4 3 3 4 4 4 3 7 5 4 3 3 5 7 6 2 7 7 7 6 6 6 5 6 6 6 6 5 6 6 6 7
18 18 18 18 19 20 21 23 19 13 13 15 17 17 14 10 6 2 3 3 4 5 3 3 3 5 6 3 6 4 4 6 4 2 3 4 6 4 2 2 2 2 1 1 2 2 3 5 3 3 2 4 5 6 4 4 4 4 4 2 1 4 3 6 6 4 2 2 7 8 7 1 7 6 6 6 6 6 5 6 7 6 6 6 5 5 5 6
18 18 18 17 18 18 19 22 20 14 13 15 17 15 10 6 2 3 3 3 2 3 3 3 1 5 4 4 6 7 6 4 3 2 2 3 5 3 2 4 3 3 3 3 5 5 4 4 2 2 4 5 3 4 5 5 4 3 3 1 1 2 2 2 6 4 3 5 7 9 9 5 6 6 5 6 6 6 6 6 7 7 7 7 6 6 7 7
18 18 18 17 17 18 18 20 18 13 12 14 16 13 6 1 3 3 2 3 2 2 4 4 3 5 4 7 6 5 5 2 1 2 2 3 4 3 3 4 3 4 5 5 6 6 5 4 4 4 5 5 4 6 5 1 1 1 1 1 1 2 2 1 3 3 3 7 8 9 10 8 4 6 4 6 6 7 6 6 6 7 7 7 7 7 8 9
19 18 18 17 17 17 17 18 16 13 13 12 14 12 4 4 3 3 4 4 3 4 3 3 6 4 1 8 6 5 3 1 2 4 4 4 5 4 4 4 4 6 6 5 6 5 4 4 5 5 6 6 4 4 3 4 3 2 2 3 2 2 2 2 4 3 3 6 7 8 9 9 7 5 5 6 7 7 7 6 6 7 7 7 8 8 8 9
19 18 18 18 18 17 17 17 13 10 12 13 14 10 5 4 4 3 5 7 8 8 6 2 6 4 2 7 5 3 3 3 4 6 6 6 6 7 6 5 6 7 5 3 3 4 3 5 7 6 5 3 2 1 3 3 1 2 2 2 2 3 1 4 3 3 2 6 5 6 8 8 7 6 5 6 7 8 8 8 8 8 8 7 8 8 9 9
18 18 18 18 18 17 17 16 11 8 9 11 12 7 2 5 5 3 4 7 7 7 9 7 6 6 3 2 2 1 2 5 7 7 7 6 7 8 7 6 8 6 3 1 1 3 3 7 7 4 1 3 2 1 1 2 2 3 4 3 3 4 1 4 2 2 0 5 2 2 7 8 7 7 6 6 8 9 9 9 10 10 9 8 8 9 8 8
17 18 19 18 17 16 17 15 8 6 7 8 9 4 4 7 4 4 5 8 6 5 8 7 6 8 6 4 3 2 4 6 9 9 8 7 9 7 6 7 7 3 4 3 4 4 6 7 5 4 3 3 2 2 4 4 3 4 4 4 4 2 1 2 2 2 1 4 3 2 6 6 5 6 7 8 9 8 8 9 9 9 9 9 9 9 8 8
17 18 19 19 18 15 16 13 5 6 7 5 6 4 4 5 5 5 5 7 7 5 7 8 8 9 8 7 5 6 8 8 9 11 11 9 9 5 5 7 5 2 4 6 5 5 5 4 6 5 4 5 4 5 6 5 5 5 3 5 4 2 2 3 3 3 2 3 4 5 6 5 4 6 7 8 9 7 7 8 8 8 9 9 9 8 8 9
16 18 19 20 19 16 16 11 2 7 8 3 3 4 4 7 7 6 5 6 6 4 4 5 6 8 9 4 6 12 10 6 6 9 12 11 7 4 6 6 4 5 5 4 5 7 2 6 6 5 7 8 6 6 7 6 4 3 4 6 5 3 3 3 2 0 4 4 4 6 7 6 5 7 7 6 7 7 8 8 9 10 10 9 9 9 9 9
15 17 20 20 19 17 15 7 2 9 9 1 2 3 7 10 7 4 4 5 5 3 3 4 4 6 6 5 8 10 7 6 7 6 11 12 7 4 4 3 4 6 5 4 5 8 1 6 4 7 8 9 8 6 6 6 4 3 4 3 4 3 3 3 2 4 6 5 1 3 7 5 4 6 6 5 6 7 8 9 10 10 10 10 10 10 10 9
14 16 19 19 19 18 10 0 3 11 8 2 2 2 8 13 7 2 3 5 3 3 4 5 4 6 8 8 9 8 6 8 5 4 8 9 6 4 4 4 4 4 3 4 5 4 3 5 4 6 8 9 9 7 5 4 7 2 3 2 1 3 3 4 5 5 6 3 2 3 7 5 2 5 4 4 5 7 7 9 10 9 8 10 9 9 9 10
14 16 19 18 19 18 8 1 8 11 3 2 2 5 9 12 5 2 3 5 3 2 4 3 2 5 7 9 12 8 5 7 7 6 8 7 5 4 5 6 5 4 2 3 5 3 5 7 6 7 9 9 8 6 5 5 8 1 5 2 3 4 3 4 5 6 5 5 3 4 5 6 6 4 4 3 7 8 8 9 9 9 10 10 9 8 8 9
15 15 17 16 16 15 7 6 11 7 1 2 4 7 10 8 1 3 3 5 2 2 2 3 2 3 4 7 13 8 1 7 8 8 8 6 6 5 8 8 6 5 6 6 5 4 6 8 8 9 9 8 7 3 4 7 7 1 5 2 3 2 4 4 5 6 3 4 6 5 3 5 7 4 4 5 8 10 10 10 10 10 9 8 9 8 8 8
17 15 15 17 16 11 7 10 11 5 2 4 6 8 7 3 2 3 4 4 2 3 1 3 4 6 6 7 12 10 3 5 5 5 9 7 6 4 5 6 5 5 6 8 7 2 4 2 2 6 8 7 5 1 2 7 5 3 5 4 4 3 4 5 5 4 2 5 7 2 1 5 7 5 4 5 6 8 7 7 7 6 5 3 5 6 5 6
17 15 14 16 14 8 9 13 10 3 2 6 9 7 2 2 3 4 4 3 1 3 3 3 4 7 10 10 11 11 9 6 3 6 9 8 7 6 2 1 5 6 6 8 9 3 3 2 1 5 5 2 2 5 1 4 1 4 6 6 5 6 5 4 4 4 4 6 4 2 1 5 6 5 3 1 2 4 4 5 5 4 3 2 1 2 2 4
17 15 14 15 11 8 10 7 2 1 6 9 8 2 3 4 3 4 4 1 2 3 5 5 6 8 12 13 10 10 12 8 6 9 9 7 8 9 4 3 5 6 6 7 9 8 7 6 4 4 3 1 3 4 2 2 4 5 6 6 6 5 5 5 5 4 6 4 3 4 2 5 6 4 1 1 1 3 4 6 6 6 6 5 3 2 1 1
17 15 14 14 12 13 11 4 3 10 11 8 5 3 5 4 5 6 4 1 1 4 5 5 7 8 12 14 10 10 12 9 9 11 10 9 9 8 9 8 7 7 7 6 7 8 9 10 9 6 4 6 8 6 5 5 6 7 7 6 6 5 4 5 5 4 5 1 5 3 2 5 7 6 4 4 3 3 3 4 6 6 7 7 5 4 2 1
17 17 16 14 13 16 16 10 11 13 8 5 4 5 5 6 7 7 7 4 1 2 2 2 6 8 10 12 11 11 10 9 11 12 11 11 9 10 13 11 9 8 6 5 6 6 7 9 11 10 6 8 11 8 6 7 8 9 8 6 6 6 5 6 5 4 5 1 5 4 2 5 7 4 2 2 2 1 1 3 4 4 6 6 6 5 4 3
19 18 17 15 14 17 17 14 14 12 6 4 5 5 7 9 7 5 8 8 2 1 2 3 5 7 9 10 9 10 10 9 11 12 11 11 9 9 11 11 12 10 5 5 5 6 7 6 10 11 6 10 14 11 6 4 7 9 8 6 7 6 6 6 5 5 5 1 3 5 3 5 3 2 2 2 2 4 5 5 5 5 6 6 5 5 5 4
20 17 16 16 16 16 14 14 15 11 5 4 6 7 10 9 6 7 8 6 3 3 4 4 5 8 9 9 8 8 7 7 11 12 10 11 10 9 10 10 13 12 8 6 4 5 7 4 7 8 4 8 14 11 6 6 6 6 5 7 7 6 6 4 2 3 4 5 3 5 4 4 3 2 3 4 4 5 6 5 6 6 6 5 6 5 4 4
19 15 13 12 15 14 10 11 14 12 7 5 7 9 10 8 7 6 4 2 3 5 6 6 7 8 8 8 8 10 6 4 10 11 9 12 12 11 12 10 13 15 11 7 4 5 7 4 9 8 4 6 7 7 7 6 4 4 6 7 2 2 5 3 1 2 2 6 5 4 6 5 4 4 3 2 4 4 4 4 5 4 5 5 5 4 4 3
16 14 9 8 11 12 11 11 11 12 8 7 10 10 9 9 9 7 2 2 0 3 6 7 7 8 9 8 8 12 9 6 9 9 8 11 10 11 13 10 11 16 15 11 6 5 7 4 9 10 8 6 2 4 6 4 3 3 5 6 5 1 4 4 4 2 3 7 5 4 8 7 4 2 3 2 4 3 2 3 3 3 4 5 4 3 3 1
14 11 8 6 5 6 9 8 10 11 6 7 12 12 9 10 11 8 4 3 2 4 7 8 6 6 8 8 8 11 11 8 10 9 8 9 6 8 13 11 10 14 17 15 8 5 7 6 6 8 7 7 6 6 7 4 5 5 2 3 4 4 5 5 5 5 6 8 6 7 9 7 5 3 1 3 3 3 5 4 4 4 4 3 3 3 3 3
11 8 5 3 2 1 4 8 11 8 7 9 11 10 9 11 11 8 5 5 6 6 8 10 7 5 6 7 7 8 11 10 10 9 9 9 6 6 10 10 10 13 14 14 9 4 6 7 4 6 5 7 7 7 7 7 7 4 3 4 5 5 4 4 5 5 7 7 7 8 7 6 6 3 1 4 4 5 6 5 5 6 4 4 3 3 3 1
8 5 2 1 3 6 14 15 10 7 8 10 10 8 8 10 11 9 8 8 7 7 8 10 9 7 7 8 6 5 9 10 10 9 8 9 7 5 7 8 8 11 11 12 10 6 6 7 6 4 6 6 8 8 10 9 8 8 8 8 7 4 3 4 5 6 7 8 7 7 7 7 4 1 2 5 5 6 6 6 6 6 5 5 3 3 4 3
6 4 2 4 1 14 18 11 6 7 8 9 10 11 10 8 7 9 10 10 8 7 7 8 9 8 8 8 7 5 7 8 10 9 8 9 8 5 7 9 8 9 9 10 11 8 6 7 7 5 6 8 8 6 5 7 6 8 9 9 9 8 6 6 8 7 7 8 8 8 9 7 1 3 2 5 6 7 7 7 7 6 6 6 5 5 5 4
5 4 1 5 7 18 11 3 4 4 6 8 9 10 8 5 7 9 9 10 10 8 6 7 8 9 8 8 8 7 7 8 10 10 8 10 11 6 7 9 8 10 9 8 9 6 3 5 8 8 8 6 3 4 2 5 5 7 8 9 10 9 8 9 8 7 6 8 9 9 10 8 3 2 3 5 7 8 7 7 8 8 7 6 6 6 6 5
4 3 4 2 10 12 4 3 5 4 5 8 9 9 7 6 8 10 9 10 10 8 7 7 8 9 9 9 9 8 8 8 10 11 9 10 11 7 8 10 9 10 10 7 7 5 2 5 8 9 8 4 4 4 1 1 4 8 9 9 10 10 10 10 8 6 6 8 8 8 9 9 5 5 5 5 7 8 7 7 9 9 8 8 8 8 7 6
3 4 3 3 10 8 6 5 5 4 6 9 10 10 9 8 8 10 11 11 10 9 9 9 9 10 9 8 8 9 9 8 9 11 10 10 7 6 8 11 10 10 10 7 6 7 5 7 8 8 9 8 5 6 6 4 5 8 9 10 11 13 13 10 6 6 8 11 12 10 10 7 2 6 6 6 8 10 9 8 9 9 9 9 9 8 8 7
3 4 2 4 6 7 6 4 3 4 6 9 11 12 11 8 7 10 11 11 11 9 9 9 9 9 7 6 7 9 10 8 9 9 9 8 5 4 6 10 10 11 9 4 4 7 7 8 8 9 11 10 10 8 6 6 8 8 9 10 11 14 14 9 7 9 10 12 13 11 10 9 4 6 8 7 9 11 10 9 9 9 9 10 9 9 9 9
2 3 3 3 5 6 6 4 4 4 5 8 9 11 13 11 7 6 7 8 9 8 8 7 7 8 8 7 7 9 10 11 8 7 7 9 7 4 5 8 10 10 5 3 6 8 7 8 10 13 13 11 11 6 0 2 8 10 11 11 12 13 14 10 9 10 11 11 12 12 13 14 13 11 11 10 10 10 10 11 11 11 11 11 9 10 11 11
2 3 3 2 3 5 6 6 7 6 5 6 5 7 13 15 11 7 7 6 6 7 7 5 7 10 9 9 10 8 9 10 9 8 8 9 7 4 4 6 9 7 6 5 10 9 6 9 13 16 16 15 16 10 2 2 9 11 11 12 12 12 12 12 11 12 11 11 12 13 14 15 15 14 14 13 11 11 12 13 13 12 12 12 11 13 14 15
3 3 2 1 1 3 4 6 8 9 10 10 6 7 14 17 15 11 8 5 3 6 7 5 9 13 11 9 9 7 6 7 8 9 9 8 7 6 6 7 8 7 7 9 10 7 7 10 12 15 16 15 16 13 8 7 10 11 12 13 13 12 12 13 14 14 14 13 13 14 16 17 15 14 14 13 11 11 13 14 13 12 13 14 15 16 17 18
3 3 1 1 3 5 6 6 6 8 12 12 9 11 16 18 19 16 11 6 4 7 9 8 11 14 12 10 7 7 8 7 7 8 7 6 7 6 8 9 7 6 9 10 7 4 6 8 9 11 13 14 15 13 11 11 12 12 14 15 15 15 15 16 15 16 17 17 17 17 19 18 15 14 15 14 13 14 14 13 12 12 14 14 15 16 16 17
3 2 2 3 4 5 7 7 6 5 8 10 11 13 16 19 21 17 12 11 9 8 10 13 14 11 8 7 8 9 7 4 3 4 5 6 5 5 6 5 3 5 9 7 5 3 4 4 6 8 9 13 15 13 12 13 14 14 15 16 16 15 15 15 15 14 15 17 17 18 19 16 13 14 15 14 13 12 12 12 12 12 13 13 13 14 15 15
4 2 2 3 5 6 6 7 7 6 7 8 10 11 14 19 22 18 10 9 13 11 11 14 14 8 4 5 8 7 5 3 2 2 2 3 2 1 3 0 1 4 8 5 4 4 4 3 4 7 9 10 13 14 14 14 14 16 17 17 18 17 16 14 13 13 14 15 17 18 16 13 10 9 10 9 9 9 10 11 12 12 12 13 14 13 13 14
7 3 0 3 6 7 8 8 8 9 9 9 10 12 14 18 20 18 10 6 10 12 10 12 12 6 5 9 9 7 6 4 2 2 0 1 1 1 1 2 2 1 2 2 2 3 6 5 4 6 8 10 13 14 14 13 13 14 15 16 18 18 16 15 14 15 16 15 14 13 11 12 10 7 6 7 8 9 10 11 12 13 13 13 12 12 12 13
Wind_Direction
14 13 13 13 10 6 3 358 354 351 348 349 351 357 1 4 6 2 3 3 3 355 351 359 353 355 356 351 350 348 20 93 144 151 119 94 111 136 121 117 129 139 149 157 179 170 154 152 141 165 174 164 183 144 165 207 240 231 229 237 178 163 130 131 105 71 43 90 101 109 142 316 73 119 131 156 134 117 123 103 104 97 76 72 94 115 137 148
14 13 15 14 11 7 2 358 353 349 346 346 345 349 356 359 3 0 357 355 352 349 351 353 349 352 352 351 349 349 58 172 181 85 76 101 123 121 110 122 137 137 142 172 181 170 156 142 148 177 176 161 166 164 180 162 231 250 259 257 153 100 57 18 7 18 5 57 57 47 108 316 22 93 172 196 143 130 119 95 134 123 101 112 122 134 148 150
13 13 15 13 11 8 4 360 354 350 345 342 341 342 346 350 357 357 352 348 345 347 350 348 347 346 346 349 346 345 234 209 133 68 71 114 115 113 118 130 136 128 109 51 113 227 141 135 161 184 170 163 153 177 189 164 218 243 266 256 107 62 3 346 322 308 335 20 310 330 14 295 40 57 187 247 276 130 86 41 201 166 139 141 144 151 158 156
14 14 15 12 10 8 5 2 356 352 345 341 338 335 336 340 345 350 349 342 339 342 346 346 344 342 344 346 346 341 260 226 87 58 88 117 114 121 124 128 131 123 78 37 70 111 142 150 172 188 185 160 132 189 190 147 240 276 272 311 79 48 300 136 6 344 341 329 302 316 296 309 54 3 230 288 276 118 95 197 217 154 147 148 156 163 167 161
13 14 14 11 9 8 6 4 360 354 347 341 335 331 330 329 331 340 341 334 335 336 340 341 340 342 344 343 347 334 261 230 90 78 118 118 124 123 124 129 125 106 85 61 100 149 173 172 175 186 208 159 148 192 158 105 295 277 253 323 356 299 291 21 25 18 351 324 308 300 309 353 25 310 297 299 313 59 67 107 128 120 132 145 159 165 171 162
11 14 12 10 9 8 6 4 2 355 348 342 334 329 324 320 320 324 328 326 328 330 333 336 339 342 342 343 343 289 254 133 109 153 139 129 127 122 128 123 88 71 87 119 135 185 181 183 188 183 200 164 164 178 104 110 277 270 203 321 313 303 301 320 355 14 345 304 305 332 33 355 250 74 43 343 22 30 32 83 110 113 120 137 156 168 172 159
9 12 9 9 8 7 7 4 1 356 350 343 335 327 320 315 312 309 313 312 317 326 328 332 336 340 344 341 309 250 164 100 126 172 159 150 135 129 130 88 48 47 37 75 110 157 163 188 199 180 193 161 156 146 100 155 238 267 299 349 308 306 301 313 332 339 328 296 323 28 136 217 247 131 125 89 58 46 63 103 110 110 120 135 155 172 168 154
7 10 8 7 6 6 6 4 1 356 350 345 336 326 317 310 306 301 296 297 305 313 317 328 334 340 346 332 272 189 108 97 132 184 181 173 168 163 129 46 18 35 44 52 69 84 154 182 161 188 214 127 127 166 121 241 201 249 321 337 297 294 313 335 336 324 305 264 178 165 188 143 94 197 154 109 79 90 103 114 110 111 126 138 156 169 161 152
5 7 6 4 4 5 5 3 359 354 350 345 338 328 317 308 302 295 286 284 284 295 309 322 332 338 343 322 264 159 101 88 161 201 205 196 202 218 253 295 334 342 73 59 59 34 37 65 76 281 282 89 152 208 266 258 174 23 321 317 294 298 339 346 2 22 127 155 168 176 168 141 153 216 151 105 95 115 120 118 114 118 131 140 152 163 165 156
3 4 4 2 2 3 3 1 356 353 349 344 339 334 324 311 301 290 281 274 269 279 293 310 331 335 333 305 258 164 105 125 173 181 197 203 219 230 238 256 293 284 17 65 58 28 44 46 39 329 308 105 219 275 273 287 10 2 315 314 295 300 0 346 53 97 120 123 172 206 174 141 160 216 184 108 116 134 131 122 124 130 135 146 151 157 167 157
0 1 0 0 0 1 2 359 355 350 347 344 340 338 334 323 309 293 274 262 261 266 274 300 320 326 316 289 266 129 118 147 157 163 185 194 211 224 240 258 275 283 311 6 61 39 47 60 35 281 271 128 247 233 202 330 339 326 309 288 253 261 195 188 115 129 143 125 197 237 217 168 180 218 130 110 126 144 139 134 144 149 144 155 157 159 170 164
357 357 358 359 359 360 360 358 354 347 345 343 337 336 336 328 316 302 275 255 252 252 258 279 296 323 300 272 300 93 129 169 195 183 203 193 208 235 259 263 264 282 301 317 28 45 1 109 218 265 359 325 270 225 118 347 310 301 284 259 203 212 212 180 141 159 208 158 192 234 228 211 199 169 112 118 133 139 150 153 159 164 156 160 162 165 170 173
354 355 356 357 357 358 358 357 352 345 344 340 335 333 330 324 311 301 278 250 242 240 247 266 290 313 280 262 81 105 149 202 256 208 222 209 222 254 275 277 263 275 292 307 354 9 281 191 230 293 352 286 292 12 313 287 283 263 243 262 232 220 201 154 143 184 197 144 172 244 246 196 145 121 118 132 144 146 162 166 169 171 162 164 169 176 172 171
352 353 354 355 356 355 356 356 351 344 343 339 335 330 328 323 304 295 276 245 232 228 237 259 287 273 263 37 101 158 165 195 223 189 214 216 230 241 251 283 272 266 279 292 331 340 266 214 240 265 242 270 320 320 262 227 235 240 214 238 246 247 169 133 142 190 191 155 183 246 262 142 108 118 130 141 151 158 170 171 177 173 164 170 172 185 179 172
350 351 353 353 354 354 353 354 350 343 341 339 334 332 333 325 310 295 256 222 219 223 230 256 275 262 255 128 128 170 167 180 180 170 203 206 227 218 184 225 259 246 259 269 294 329 205 212 239 253 200 231 265 262 247 204 201 225 234 218 217 243 164 128 139 210 218 159 190 235 260 150 119 128 135 143 161 166 178 175 180 177 168 176 177 187 188 179
348 349 351 351 352 352 351 351 350 344 340 338 334 337 338 330 328 290 211 192 210 204 205 237 223 261 275 115 133 178 183 180 164 157 200 203 231 227 163 215 218 204 215 211 202 160 190 220 253 296 272 228 238 259 249 213 198 199 253 273 176 236 195 131 141 192 245 181 199 227 263 286 108 120 137 153 171 170 186 185 185 189 177 182 184 186 194 192
346 347 349 349 350 350 349 348 347 344 341 339 336 340 343 344 56 118 127 137 197 185 218 269 220 263 273 116 153 188 171 159 139 159 209 215 229 236 239 236 209 191 166 142 169 175 189 215 231 233 234 236 243 263 245 227 200 175 233 285 88 271 277 139 134 143 215 226 221 220 248 274 97 110 146 166 182 185 198 197 191 197 189 190 191 190 197 201
345 346 347 347 348 349 348 345 343 341 342 340 337 337 338 342 121 110 107 122 118 178 235 254 224 260 215 162 176 162 142 146 170 212 226 215 216 222 240 241 236 226 203 174 181 195 196 200 230 228 211 218 222 234 243 243 92 116 265 248 150 195 243 327 85 96 232 235 236 225 234 245 159 129 152 170 189 203 207 208 205 206 201 197 198 198 198 200
344 346 346 345 346 347 347 344 340 337 340 344 341 331 297 237 213 214 213 194 205 230 250 183 196 264 132 155 151 115 130 235 233 213 194 180 185 191 208 229 243 240 227 204 177 189 219 205 214 231 218 208 202 240 308 27 34 3 335 315 304 225 177 40 47 55 289 252 237 236 240 241 217 184 178 177 187 209 215 212 215 214 210 206 204 204 200 201
343 347 346 345 345 344 347 344 338 336 338 350 348 321 270 273 268 211 216 236 243 259 289 238 207 252 116 137 136 138 185 213 205 189 167 166 177 185 192 209 222 224 235 236 160 156 237 231 212 219 216 184 140 246 343 17 350 298 275 259 276 273 103 70 39 57 309 270 245 249 256 249 236 217 201 193 193 210 218 216 220 218 213 210 209 209 203 201
342 347 346 345 344 343 345 342 338 335 336 356 352 317 322 358 332 348 326 274 250 254 267 254 244 262 250 134 133 170 205 193 190 177 161 170 190 193 181 195 219 207 184 261 190 148 224 234 214 199 108 89 125 171 223 229 237 256 258 256 237 245 111 74 23 42 275 270 269 280 269 254 239 230 212 207 214 221 224 222 223 221 216 211 212 214 207 199
342 346 345 344 343 343 343 342 343 341 340 355 349 338 42 24 344 337 322 284 260 238 250 244 246 256 254 252 236 254 258 206 187 178 166 177 202 204 171 190 226 199 135 191 207 182 216 225 177 122 94 115 153 185 209 224 237 246 252 265 252 236 105 146 131 93 196 271 310 324 281 262 234 229 218 217 227 229 229 230 230 226 221 213 211 214 208 199
343 346 344 342 342 342 342 342 350 2 3 356 346 20 42 2 334 305 270 280 277 228 225 227 229 229 219 228 217 211 228 213 190 177 169 188 205 209 198 199 216 205 176 203 218 211 214 187 125 120 167 182 178 185 208 223 228 246 263 265 270 21 306 233 125 106 191 260 303 303 280 261 220 219 221 220 228 231 226 228 234 235 230 222 216 214 206 199
344 346 342 341 340 340 341 338 357 12 4 349 4 45 20 346 336 297 259 278 273 215 210 220 229 228 211 198 183 199 214 212 199 169 166 194 194 175 215 212 210 219 205 203 243 245 217 81 97 147 191 206 201 190 215 239 221 217 259 277 303 355 305 302 53 85 225 213 260 284 272 255 215 216 221 201 208 223 220 224 232 233 231 229 226 219 209 203
345 345 340 340 338 338 340 334 64 4 346 251 128 52 6 352 345 290 267 276 252 182 179 193 210 218 194 166 177 195 209 206 212 166 163 198 196 164 199 209 231 227 196 182 240 248 171 85 129 174 187 209 216 206 215 250 258 211 212 253 326 323 302 306 297 278 253 212 165 309 279 259 190 218 226 181 197 220 214 223 233 228 221 222 223 217 209 207
342 344 341 340 340 340 338 54 31 345 332 143 121 351 347 348 345 250 256 277 242 157 154 178 192 178 169 177 174 178 202 197 194 142 161 198 207 206 209 173 220 250 187 191 244 260 129 120 179 193 194 204 220 228 197 229 271 255 139 127 322 282 282 295 292 286 275 269 51 333 285 282 247 232 203 171 228 235 218 227 237 235 226 222 223 217 207 203
337 342 338 337 345 348 342 328 345 334 321 95 6 319 335 342 346 181 253 276 241 157 141 163 185 169 168 173 167 174 193 152 135 153 177 197 184 204 232 185 195 232 181 214 246 214 157 161 184 204 210 207 221 231 177 206 264 309 91 122 217 250 272 295 294 276 285 317 296 245 258 279 277 258 147 172 255 251 235 237 238 240 236 229 230 222 210 201
330 337 335 333 343 349 340 320 331 335 1 15 342 328 337 341 321 186 274 283 233 124 145 141 114 160 165 168 182 198 135 135 166 173 166 192 188 197 229 213 211 201 176 220 237 157 168 187 188 199 212 216 229 234 155 205 255 66 97 186 215 251 278 277 281 272 282 307 269 219 200 263 271 256 172 198 258 259 248 247 245 247 244 235 237 234 219 201
323 329 331 330 336 344 341 321 312 300 282 332 341 339 344 349 209 222 270 275 178 141 159 131 136 179 173 169 200 214 195 183 204 148 145 183 212 228 242 225 222 197 177 228 246 136 132 185 219 218 222 226 219 122 149 223 249 97 134 190 197 220 252 249 266 280 261 264 267 214 176 274 282 277 227 204 254 268 264 262 260 267 275 261 257 256 233 194
318 323 325 330 338 344 328 312 291 267 323 330 338 346 355 183 220 240 237 245 199 144 138 160 170 181 178 178 200 209 209 209 159 141 162 178 193 207 267 268 224 216 193 222 245 233 128 99 332 243 244 269 127 96 83 243 230 128 173 201 208 213 226 240 256 275 264 250 240 124 230 274 280 282 264 183 326 317 303 294 297 305 312 318 307 284 246 182
313 316 321 323 324 316 312 306 222 307 329 328 333 327 201 206 233 245 225 249 294 165 153 188 182 174 189 195 198 197 207 210 166 168 177 172 185 192 184 185 210 222 214 214 229 221 196 197 210 211 235 269 167 150 137 181 184 196 214 223 228 217 209 228 222 217 252 248 135 121 208 252 261 260 266 7 336 302 289 292 301 306 312 322 330 327 331 166
309 310 312 308 301 285 276 247 260 299 312 327 322 236 216 219 216 229 217 113 229 183 171 196 191 190 201 206 209 196 200 210 190 190 193 187 194 195 197 204 193 201 218 213 207 205 209 217 208 185 187 214 221 208 174 177 198 216 227 229 239 235 215 233 226 213 253 249 111 131 204 241 260 262 277 306 304 293 293 286 291 302 312 319 321 318 311 226
311 311 306 298 289 274 267 267 275 285 304 325 277 225 223 233 218 214 216 212 183 137 149 181 189 204 206 208 215 201 199 206 195 203 209 199 205 204 205 215 209 213 227 203 196 198 200 206 203 199 191 202 223 225 193 189 199 213 223 221 233 245 237 242 247 247 259 207 125 149 217 257 259 249 230 299 328 320 235 243 266 282 285 297 309 306 293 260
312 312 304 293 281 270 269 271 265 266 288 287 245 212 217 231 218 202 220 224 206 99 171 161 176 207 215 218 216 198 205 211 194 204 211 203 217 215 206 211 213 226 237 202 210 214 209 202 193 198 183 181 207 230 245 227 203 209 226 235 238 249 252 251 256 257 259 269 150 162 200 260 267 85 136 224 265 250 239 233 242 252 253 264 274 276 280 273
314 312 304 291 280 271 265 262 254 245 242 235 228 218 219 224 213 213 231 226 188 179 183 176 195 213 218 224 223 207 218 217 194 204 214 208 218 219 212 208 205 216 224 210 208 211 235 244 162 161 142 178 204 220 244 258 223 195 212 238 244 255 259 261 321 330 312 303 254 197 227 269 296 312 246 253 268 255 248 227 221 233 226 228 248 249 254 268
319 316 302 282 278 276 264 255 240 216 200 216 226 225 224 224 214 215 222 196 198 191 180 192 211 221 221 216 218 211 214 218 198 203 215 217 223 223 220 211 198 206 214 211 197 193 234 229 143 147 164 186 214 211 201 240 235 168 201 223 219 301 274 253 185 43 315 274 260 229 250 262 262 256 216 236 274 256 245 222 213 231 217 216 236 234 233 250
322 316 292 261 273 277 270 260 223 194 191 218 228 231 231 227 225 224 183 111 177 199 199 212 205 212 225 222 216 205 195 199 201 205 212 212 220 222 219 213 198 204 211 218 224 209 232 223 157 176 193 167 195 209 185 227 250 202 216 192 130 102 261 250 244 218 228 251 250 240 261 270 259 233 155 202 268 280 281 264 251 254 228 217 225 219 218 205
313 304 276 253 279 288 277 252 188 180 203 228 234 240 240 233 228 228 210 178 222 215 218 232 210 200 225 234 226 199 187 193 195 201 213 204 202 211 210 209 200 207 214 221 230 209 222 238 171 174 185 147 155 201 189 186 226 257 289 155 164 232 221 207 231 241 245 254 254 250 261 270 259 246 235 263 283 304 298 293 290 282 264 249 244 230 210 170
295 285 251 243 332 281 214 180 167 187 221 225 234 237 238 240 233 227 216 208 229 226 227 239 226 208 224 236 240 196 187 204 202 198 213 204 188 191 201 207 200 203 212 217 221 195 201 235 207 160 160 154 166 209 212 187 189 229 255 200 217 262 250 222 223 237 255 261 261 259 258 261 258 238 261 286 291 293 294 294 293 295 292 281 273 265 258 228
281 270 203 1 326 167 154 153 166 201 220 226 241 243 239 242 235 229 220 212 223 229 236 241 229 222 222 224 247 219 199 219 216 208 213 200 191 189 193 207 200 189 199 210 214 203 190 224 233 160 144 179 196 208 219 214 193 196 215 217 213 219 247 264 243 237 258 264 262 262 253 257 270 163 216 282 291 283 282 282 284 291 292 292 295 286 290 301
284 256 189 4 69 150 143 145 178 204 219 230 242 245 246 249 246 238 223 216 229 239 249 253 239 236 232 222 232 222 207 225 221 218 220 200 206 216 190 199 198 172 177 201 208 206 196 209 224 197 176 208 214 196 226 256 237 214 217 218 218 219 226 246 242 232 242 257 262 266 260 260 266 118 220 281 289 281 279 277 280 287 289 292 294 287 289 294
276 235 338 3 150 155 152 168 184 194 224 232 240 245 242 243 252 250 229 215 227 235 240 250 245 242 240 232 232 218 209 224 219 220 227 211 213 213 172 184 193 176 178 197 196 192 201 212 221 224 216 208 158 101 26 323 290 256 243 233 232 232 230 240 248 239 229 240 254 261 264 265 242 194 251 274 280 288 290 279 274 278 284 286 284 284 282 277
249 244 347 11 170 178 220 220 183 200 218 229 249 250 237 231 239 242 234 221 223 228 227 231 234 236 237 234 233 224 215 226 227 222 226 222 212 187 158 171 186 191 193 197 181 160 164 217 218 230 231 198 118 110 122 332 271 248 239 239 242 238 238 247 259 264 249 243 250 255 258 261 237 208 238 263 276 285 281 266 264 269 275 276 273 276 278 274
263 276 320 178 186 221 257 214 200 216 210 226 243 242 242 243 233 233 234 228 220 220 225 227 228 230 233 230 232 230 218 220 230 225 228 230 206 149 152 171 183 200 204 203 183 168 188 214 211 226 232 217 202 206 202 196 218 234 233 227 230 237 243 250 259 267 260 254 258 262 262 267 207 166 207 254 274 278 273 263 263 262 262 269 271 275 280 284
272 255 233 182 199 241 254 237 236 215 210 233 241 242 244 238 225 231 240 238 228 224 228 229 226 227 223 215 227 233 224 225 234 228 226 229 202 140 165 180 193 209 207 193 169 171 198 217 208 220 229 224 224 225 223 218 210 218 231 220 217 229 233 236 249 251 250 252 255 258 263 274 254 190 210 249 266 271 273 274 273 264 256 260 269 279 286 290
267 247 229 183 194 227 247 261 258 235 225 235 241 247 247 242 231 219 227 238 234 230 241 244 231 226 215 204 218 230 225 226 235 237 231 223 207 177 174 187 206 209 177 134 170 181 211 227 219 230 238 238 238 231 103 266 223 208 213 213 212 224 226 229 245 246 250 259 256 253 261 272 272 258 257 269 270 272 278 280 279 273 263 259 261 274 284 285
254 249 248 232 206 224 242 245 238 239 238 231 232 241 243 246 246 217 198 218 224 220 236 252 234 225 212 204 217 228 223 221 225 233 236 230 214 172 153 199 210 186 141 167 193 197 221 226 220 230 241 248 253 248 186 250 242 226 222 220 214 215 219 225 236 242 252 263 261 260 265 272 276 276 278 280 280 282 287 286 284 285 285 283 281 283 285 283
236 255 261 272 242 222 240 251 249 251 247 239 236 239 241 242 241 231 207 193 205 209 214 226 226 225 220 210 216 221 210 212 220 220 223 227 215 177 169 203 202 174 172 193 195 202 229 228 220 227 236 242 250 251 239 240 247 242 238 237 229 223 223 226 235 242 247 255 261 268 273 274 276 279 281 285 286 287 289 290 292 296 295 290 287 287 285 283
236 269 255 220 232 221 226 248 267 268 257 251 244 239 241 239 235 235 227 212 209 204 207 219 219 219 220 210 211 219 207 206 221 220 212 212 214 202 192 195 193 188 199 199 188 206 240 232 218 223 236 240 237 239 235 233 240 240 237 238 238 235 234 235 241 245 249 256 263 270 275 274 274 278 281 284 283 284 287 289 292 294 292 289 288 286 284 283
245 274 248 229 241 236 233 236 243 256 255 255 252 243 243 243 240 238 229 216 214 197 199 220 221 211 207 204 211 221 212 205 223 214 199 194 202 219 209 198 192 195 201 198 177 191 235 218 190 207 237 242 234 232 229 227 233 237 234 234 234 234 236 238 243 247 251 258 262 267 271 271 270 276 278 278 279 284 290 291 292 294 296 295 293 289 287 287
253 336 5 267 250 239 238 235 230 237 239 238 242 242 242 242 242 244 237 223 227 213 193 210 216 193 160 198 213 209 181 146 126 133 170 205 188 205 210 210 5 189 192 198 172 170 208 202 174 206 235 241 233 231 229 227 234 239 236 233 232 233 235 237 239 240 245 254 260 262 265 268 274 288 290 286 289 293 294 296 298 299 301 301 299 300 301 299
231 235 228 271 260 241 238 238 228 232 235 227 227 235 242 242 242 247 249 238 237 230 205 197 195 173 175 196 191 177 154 141 134 109 76 290 24 48 147 56 14 198 181 209 190 182 206 205 189 208 230 243 237 232 234 235 236 239 237 233 233 235 238 238 239 241 241 248 258 259 262 271 282 303 313 304 302 302 299 299 299 298 300 306 312 317 316 314